Location: Winthrop
(48.4780°N, 120.1850°W)
Time: 05:17:57
(UTC-08:00)

Vanguard 1 Rocket - Pass Details

Date: 06 December 2023
Orbit: 654 x 4218 km, 34.3° (Epoch: 24 February)

Event Time Altitude Azimuth Distance (km) Brightness Sun altitude
Rises 07:11:02 0° 257° (WSW) 7,782 11.7 -4.5°
Reaches altitude 10° 07:17:20 10° 252° (WSW) 6,275 11.3 -3.6°
Maximum altitude 07:33:04 42° 191° (S) 2,798 10.1 -1.4°
Drops below altitude 10° 07:41:42 10° 124° (ESE) 3,507 12.8 -0.2°
Sets 07:44:10 0° 116° (ESE) 4,163 13.2 0.1°
